| time (UTC) | temp F | wind direction | speed MPH | gust MPH | rain 1hr in | rain 24hr in | rain mn in | humidity % | barometer mb |
| 20260502221539 | 55 | 145 | 0.0 | 2.0 | 0.00 | 0.00 | 0.00 | 56 | 1022.2 |
| 20260502221037 | 55 | 145 | 0.0 | 2.0 | 0.00 | 0.00 | 0.00 | 55 | 1022.2 |
| 20260502220536 | 55 | 145 | 0.0 | 2.0 | 0.00 | 0.00 | 0.00 | 54 | 1022.2 |
| 20260502220042 | 55 | 145 | 0.0 | 2.0 | 0.00 | 0.00 | 0.00 | 54 | 1022.1 |
| 20260502215536 | 56 | 145 | 1.0 | 2.0 | 0.00 | 0.00 | 0.00 | 54 | 1022.2 |
| 20260502215035 | 56 | 145 | 0.0 | 2.0 | 0.00 | 0.00 | 0.00 | 53 | 1022.1 |
| 20260502214634 | 56 | 145 | 0.0 | 2.0 | 0.00 | 0.00 | 0.00 | 52 | 1022.1 |
| 20260502214034 | 56 | 145 | 1.0 | 2.0 | 0.00 | 0.00 | 0.00 | 53 | 1022.1 |
| 20260502213536 | 56 | 145 | 1.0 | 2.0 | 0.00 | 0.00 | 0.00 | 53 | 1022.1 |
| 20260502213040 | 56 | 145 | 0.0 | 2.0 | 0.00 | 0.00 | 0.00 | 53 | 1022.1 |
| 20260502212534 | 57 | 145 | 0.0 | 2.0 | 0.00 | 0.00 | 0.00 | 53 | 1022.1 |
| 20260502212034 | 56 | 145 | 0.0 | 2.0 | 0.00 | 0.00 | 0.00 | 52 | 1022.1 |
| 20260502211537 | 56 | 145 | 0.0 | 2.0 | 0.00 | 0.00 | 0.00 | 52 | 1022.1 |
| 20260502211035 | 57 | 145 | 0.0 | 0.0 | 0.00 | 0.00 | 0.00 | 53 | 1022.2 |
| 20260502210537 | 57 | 145 | 0.0 | 2.0 | 0.00 | 0.00 | 0.00 | 51 | 1022.2 |
| 20260502210034 | 58 | 145 | 0.0 | 3.0 | 0.00 | 0.00 | 0.00 | 51 | 1022.2 |
| 20260502205535 | 58 | 145 | 0.0 | 4.0 | 0.00 | 0.00 | 0.00 | 50 | 1022.3 |
| 20260502205033 | 58 | 145 | 1.0 | 4.0 | 0.00 | 0.00 | 0.00 | 50 | 1022.4 |
| 20260502204536 | 58 | 191 | 2.0 | 3.0 | 0.00 | 0.00 | 0.00 | 50 | 1022.4 |
| 20260502204032 | 58 | 191 | 2.0 | 3.0 | 0.00 | 0.00 | 0.00 | 50 | 1022.4 |
| 20260502203532 | 58 | 191 | 1.0 | 2.0 | 0.00 | 0.00 | 0.00 | 49 | 1022.2 |
| 20260502203032 | 58 | 191 | 1.0 | 2.0 | 0.00 | 0.00 | 0.00 | 49 | 1022.2 |
| 20260502202533 | 58 | 191 | 0.0 | 2.0 | 0.00 | 0.00 | 0.00 | 50 | 1022.2 |
| 20260502202031 | 59 | 191 | 0.0 | 2.0 | 0.00 | 0.00 | 0.00 | 50 | 1022.2 |
| 20260502201537 | 59 | 191 | 0.0 | 2.0 | 0.00 | 0.00 | 0.00 | 49 | 1022.2 |
| 20260502201032 | 60 | 191 | 0.0 | 2.0 | 0.00 | 0.00 | 0.00 | 48 | 1022.2 |
| 20260502200532 | 60 | 191 | 1.0 | 2.0 | 0.00 | 0.00 | 0.00 | 47 | 1022.2 |
| 20260502200032 | 60 | 191 | 1.0 | 2.0 | 0.00 | 0.00 | 0.00 | 47 | 1022.2 |
| 20260502195532 | 61 | 191 | 0.0 | 2.0 | 0.00 | 0.00 | 0.00 | 46 | 1022.2 |
| 20260502195031 | 61 | 191 | 0.0 | 2.0 | 0.00 | 0.00 | 0.00 | 45 | 1022.1 |
| 20260502194533 | 61 | 191 | 1.0 | 2.0 | 0.00 | 0.00 | 0.00 | 45 | 1022.1 |
| 20260502194031 | 61 | 191 | 1.0 | 2.0 | 0.00 | 0.00 | 0.00 | 44 | 1022.0 |
| 20260502193531 | 62 | 191 | 0.0 | 3.0 | 0.00 | 0.00 | 0.00 | 44 | 1022.0 |
| 20260502193033 | 62 | 191 | 2.0 | 3.0 | 0.00 | 0.00 | 0.00 | 43 | 1021.9 |
| 20260502192530 | 62 | 191 | 0.0 | 2.0 | 0.00 | 0.00 | 0.00 | 41 | 1021.9 |
| 20260502192030 | 63 | 191 | 0.0 | 2.0 | 0.00 | 0.00 | 0.00 | 42 | 1021.9 |
| 20260502191531 | 63 | 191 | 0.0 | 2.0 | 0.00 | 0.00 | 0.00 | 41 | 1021.8 |
| 20260502191031 | 63 | 191 | 1.0 | 2.0 | 0.00 | 0.00 | 0.00 | 39 | 1021.8 |
| 20260502190529 | 64 | 191 | 0.0 | 3.0 | 0.00 | 0.00 | 0.00 | 39 | 1021.6 |
| 20260502190040 | 64 | 191 | 0.0 | 3.0 | 0.00 | 0.00 | 0.00 | 39 | 1021.6 |
| 20260502185529 | 65 | 239 | 1.0 | 2.0 | 0.00 | 0.00 | 0.00 | 38 | 1021.6 |
| 20260502185029 | 65 | 239 | 0.0 | 2.0 | 0.00 | 0.00 | 0.00 | 36 | 1021.6 |
| 20260502184528 | 66 | 239 | 0.0 | 2.0 | 0.00 | 0.00 | 0.00 | 36 | 1021.5 |
| 20260502184029 | 66 | 239 | 0.0 | 3.0 | 0.00 | 0.00 | 0.00 | 36 | 1021.5 |
| 20260502183529 | 66 | 239 | 1.0 | 3.0 | 0.00 | 0.00 | 0.00 | 35 | 1021.4 |
| 20260502183028 | 67 | 282 | 0.0 | 4.0 | 0.00 | 0.00 | 0.00 | 35 | 1021.4 |
| 20260502182528 | 67 | 282 | 0.0 | 4.0 | 0.00 | 0.00 | 0.00 | 33 | 1021.3 |
| 20260502182030 | 67 | 274 | 1.0 | 6.0 | 0.00 | 0.00 | 0.00 | 33 | 1021.3 |
| 20260502181533 | 67 | 278 | 2.0 | 6.0 | 0.00 | 0.00 | 0.00 | 33 | 1021.2 |
| 20260502181027 | 67 | 304 | 2.0 | 8.0 | 0.00 | 0.00 | 0.00 | 33 | 1021.2 |
| 20260502180528 | 67 | 151 | 3.0 | 8.0 | 0.00 | 0.00 | 0.00 | 33 | 1021.2 |
| 20260502164022 | 70 | 278 | 6.0 | 11.0 | 0.00 | 0.00 | 0.00 | 33 | 1021.3 |
| 20260502163522 | 70 | 280 | 6.0 | 13.0 | 0.00 | 0.00 | 0.00 | 33 | 1021.3 |
| 20260502163023 | 70 | 281 | 3.0 | 13.0 | 0.00 | 0.00 | 0.00 | 33 | 1021.2 |
| 20260502162522 | 70 | 304 | 6.0 | 11.0 | 0.00 | 0.00 | 0.00 | 33 | 1021.3 |
| 20260502162023 | 70 | 274 | 4.0 | 11.0 | 0.00 | 0.00 | 0.00 | 33 | 1021.4 |
| 20260502161521 | 70 | 272 | 3.0 | 10.0 | 0.00 | 0.00 | 0.00 | 33 | 1021.5 |
| 20260502161021 | 70 | 274 | 4.0 | 11.0 | 0.00 | 0.00 | 0.00 | 33 | 1021.5 |
| 20260502160523 | 70 | 304 | 3.0 | 12.0 | 0.00 | 0.00 | 0.00 | 33 | 1021.5 |
| 20260502152014 | 72 | 230 | 4.0 | 10.0 | 0.00 | 0.00 | 0.00 | 31 | 1022.1 |
| 20260502151537 | 72 | 309 | 4.0 | 10.0 | 0.00 | 0.00 | 0.00 | 30 | 1022.2 |
| 20260502151015 | 72 | 277 | 4.0 | 9.0 | 0.00 | 0.00 | 0.00 | 30 | 1022.2 |
| 20260502150514 | 72 | 304 | 4.0 | 9.0 | 0.00 | 0.00 | 0.00 | 30 | 1022.3 |
| 20260502130558 | 74 | 266 | 2.0 | 10.0 | 0.00 | 0.00 | 0.00 | 20 | 1024.1 |
| 20260502130106 | 74 | 309 | 6.0 | 9.0 | 0.00 | 0.00 | 0.00 | 21 | 1024.2 |
| 20260502123554 | 74 | 324 | 3.0 | 9.0 | 0.00 | 0.00 | 0.00 | 20 | 1024.5 |
| 20260502123054 | 74 | 314 | 2.0 | 8.0 | 0.00 | 0.00 | 0.00 | 19 | 1024.6 |
| 20260502122553 | 73 | 279 | 2.0 | 8.0 | 0.00 | 0.00 | 0.00 | 19 | 1024.7 |
| 20260502122052 | 73 | 304 | 3.0 | 8.0 | 0.00 | 0.00 | 0.00 | 23 | 1024.8 |
| 20260502121651 | 73 | 258 | 2.0 | 11.0 | 0.00 | 0.00 | 0.00 | 21 | 1024.8 |
| 20260502121050 | 73 | 280 | 7.0 | 11.0 | 0.00 | 0.00 | 0.00 | 22 | 1024.8 |
| 20260502120550 | 73 | 335 | 1.0 | 9.0 | 0.00 | 0.00 | 0.00 | 21 | 1025.0 |
| 20260502115548 | 72 | 300 | 4.0 | 9.0 | 0.00 | 0.00 | 0.00 | 22 | 1025.1 |
| 20260502115048 | 72 | 286 | 3.0 | 6.0 | 0.00 | 0.00 | 0.00 | 24 | 1025.2 |
| 20260502114545 | 72 | 299 | 4.0 | 10.0 | 0.00 | 0.00 | 0.00 | 31 | 1025.3 |
| 20260502114044 | 71 | 264 | 8.0 | 10.0 | 0.00 | 0.00 | 0.00 | 27 | 1025.3 |
| 20260502113544 | 72 | 314 | 4.0 | 9.0 | 0.00 | 0.00 | 0.00 | 28 | 1025.4 |
| 20260502113050 | 71 | 314 | 2.0 | 8.0 | 0.00 | 0.00 | 0.00 | 30 | 1025.6 |
| 20260502112541 | 71 | 278 | 4.0 | 9.0 | 0.00 | 0.00 | 0.00 | 30 | 1025.6 |
| 20260502112041 | 71 | 309 | 3.0 | 10.0 | 0.00 | 0.00 | 0.00 | 31 | 1025.7 |
| 20260502111546 | 71 | 304 | 5.0 | 10.0 | 0.00 | 0.00 | 0.00 | 32 | 1025.7 |
| 20260502111039 | 70 | 309 | 5.0 | 10.0 | 0.00 | 0.00 | 0.00 | 29 | 1025.8 |
| 20260502110538 | 70 | 296 | 4.0 | 10.0 | 0.00 | 0.00 | 0.00 | 33 | 1025.8 |
| 20260502110038 | 70 | 309 | 6.0 | 9.0 | 0.00 | 0.00 | 0.00 | 32 | 1026.0 |
| 20260502105537 | 70 | 326 | 5.0 | 9.0 | 0.00 | 0.00 | 0.00 | 33 | 1026.0 |
| 20260502105038 | 70 | 304 | 5.0 | 9.0 | 0.00 | 0.00 | 0.00 | 32 | 1026.0 |
| 20260502104533 | 69 | 288 | 3.0 | 6.0 | 0.00 | 0.00 | 0.00 | 35 | 1026.1 |
| 20260502104032 | 69 | 279 | 3.0 | 6.0 | 0.00 | 0.00 | 0.00 | 37 | 1026.2 |
| 20260502103532 | 69 | 314 | 3.0 | 6.0 | 0.00 | 0.00 | 0.00 | 35 | 1026.2 |
| 20260502103030 | 68 | 297 | 2.0 | 6.0 | 0.00 | 0.00 | 0.00 | 36 | 1026.3 |
| 20260502102530 | 68 | 293 | 3.0 | 6.0 | 0.00 | 0.00 | 0.00 | 37 | 1026.4 |
| 20260502102029 | 68 | 280 | 2.0 | 6.0 | 0.00 | 0.00 | 0.00 | 37 | 1026.5 |
| 20260502101528 | 67 | 304 | 4.0 | 8.0 | 0.00 | 0.00 | 0.00 | 37 | 1026.6 |
| 20260502101027 | 67 | 314 | 2.0 | 8.0 | 0.00 | 0.00 | 0.00 | 37 | 1026.6 |
| 20260502100526 | 67 | 324 | 4.0 | 8.0 | 0.00 | 0.00 | 0.00 | 37 | 1026.6 |
| 20260502091512 | 63 | 295 | 4.0 | 6.0 | 0.00 | 0.00 | 0.00 | 43 | 1027.5 |
| 20260502091011 | 63 | 314 | 4.0 | 6.0 | 0.00 | 0.00 | 0.00 | 44 | 1027.5 |
| 20260502090515 | 63 | 297 | 3.0 | 6.0 | 0.00 | 0.00 | 0.00 | 43 | 1027.5 |
| 20260502071042 | 55 | 161 | 0.0 | 2.0 | 0.00 | 0.00 | 0.00 | 57 | 1028.9 |
| 20260502070536 | 55 | 161 | 0.0 | 0.0 | 0.00 | 0.00 | 0.00 | 56 | 1029.0 |
| 20260502070045 | 54 | 161 | 0.0 | 0.0 | 0.00 | 0.00 | 0.00 | 58 | 1029.1 |
| 20260502065533 | 54 | 161 | 0.0 | 1.0 | 0.00 | 0.00 | 0.00 | 58 | 1029.1 |
| 20260502065033 | 53 | 161 | 0.0 | 1.0 | 0.00 | 0.00 | 0.00 | 60 | 1029.1 |
| 20260502064530 | 53 | 161 | 0.0 | 0.0 | 0.00 | 0.00 | 0.00 | 64 | 1029.2 |
| 20260502064029 | 53 | 161 | 0.0 | 0.0 | 0.00 | 0.00 | 0.00 | 62 | 1029.2 |
| 20260502063528 | 52 | 161 | 0.0 | 0.0 | 0.00 | 0.00 | 0.00 | 63 | 1029.2 |
| 20260502063035 | 52 | 161 | 0.0 | 0.0 | 0.00 | 0.00 | 0.00 | 60 | 1029.2 |
| 20260502062525 | 52 | 161 | 0.0 | 0.0 | 0.00 | 0.00 | 0.00 | 61 | 1029.3 |
| 20260502062025 | 51 | 161 | 0.0 | 0.0 | 0.00 | 0.00 | 0.00 | 61 | 1029.3 |
| 20260502061523 | 51 | 161 | 0.0 | 0.0 | 0.00 | 0.00 | 0.00 | 63 | 1029.4 |
| 20260502061023 | 50 | 161 | 0.0 | 2.0 | 0.00 | 0.00 | 0.00 | 65 | 1029.4 |
| 20260502060519 | 50 | 161 | 0.0 | 2.0 | 0.00 | 0.00 | 0.00 | 62 | 1029.4 |
| 20260502060018 | 50 | 161 | 0.0 | 0.0 | 0.00 | 0.00 | 0.00 | 64 | 1029.4 |
| 20260502055517 | 49 | 161 | 0.0 | 0.0 | 0.00 | 0.00 | 0.00 | 65 | 1029.5 |
| 20260502055016 | 48 | 161 | 0.0 | 0.0 | 0.00 | 0.00 | 0.00 | 68 | 1029.5 |
| 20260502054529 | 47 | 161 | 0.0 | 0.0 | 0.00 | 0.00 | 0.00 | 67 | 1029.6 |
| 20260502054012 | 47 | 161 | 0.0 | 0.0 | 0.00 | 0.00 | 0.00 | 69 | 1029.5 |
| 20260502053512 | 47 | 161 | 0.0 | 0.0 | 0.00 | 0.00 | 0.00 | 71 | 1029.5 |
| 20260502053010 | 46 | 161 | 0.0 | 0.0 | 0.00 | 0.00 | 0.00 | 73 | 1029.5 |
| 20260502052509 | 46 | 161 | 0.0 | 0.0 | 0.00 | 0.00 | 0.00 | 73 | 1029.6 |
| 20260502052009 | 46 | 161 | 0.0 | 0.0 | 0.00 | 0.00 | 0.00 | 72 | 1029.6 |
| 20260502051508 | 45 | 161 | 0.0 | 0.0 | 0.00 | 0.00 | 0.00 | 70 | 1029.6 |
| 20260502051008 | 45 | 161 | 0.0 | 0.0 | 0.00 | 0.00 | 0.00 | 72 | 1029.6 |
| 20260502050508 | 45 | 161 | 0.0 | 0.0 | 0.00 | 0.00 | 0.00 | 72 | 1029.6 |
| 20260502050003 | 44 | 161 | 0.0 | 0.0 | 0.00 | 0.00 | 0.00 | 74 | 1029.7 |
| 20260502045502 | 44 | 161 | 0.0 | 0.0 | 0.00 | 0.00 | 0.00 | 75 | 1029.6 |
| 20260502045001 | 43 | 161 | 0.0 | 0.0 | 0.00 | 0.00 | 0.00 | 76 | 1029.6 |
| 20260502044602 | 43 | 161 | 0.0 | 0.0 | 0.00 | 0.00 | 0.00 | 77 | 1029.6 |
| 20260502044101 | 42 | 161 | 0.0 | 0.0 | 0.00 | 0.00 | 0.00 | 76 | 1029.6 |
| 20260502043556 | 42 | 309 | 0.0 | 0.0 | 0.00 | 0.00 | 0.00 | 77 | 1029.6 |
| 20260502043056 | 41 | 161 | 0.0 | 0.0 | 0.00 | 0.00 | 0.00 | 77 | 1029.6 |
| 20260502042556 | 41 | 161 | 0.0 | 0.0 | 0.00 | 0.00 | 0.00 | 77 | 1029.6 |
| 20260502042052 | 41 | 161 | 0.0 | 0.0 | 0.00 | 0.00 | 0.00 | 76 | 1029.6 |
| 20260502041559 | 42 | 161 | 0.0 | 0.0 | 0.00 | 0.00 | 0.00 | 76 | 1029.6 |
| 20260502041052 | 42 | 161 | 0.0 | 0.0 | 0.00 | 0.00 | 0.00 | 75 | 1029.6 |
| 20260502040551 | 42 | 161 | 0.0 | 0.0 | 0.00 | 0.00 | 0.00 | 75 | 1029.6 |
| 20260502040051 | 42 | 161 | 0.0 | 0.0 | 0.00 | 0.00 | 0.00 | 75 | 1029.6 |
| 20260502035550 | 42 | 161 | 0.0 | 0.0 | 0.00 | 0.00 | 0.00 | 74 | 1029.7 |
| 20260502035050 | 42 | 161 | 0.0 | 0.0 | 0.00 | 0.00 | 0.00 | 75 | 1029.6 |
| 20260502034550 | 42 | 161 | 0.0 | 0.0 | 0.00 | 0.00 | 0.00 | 75 | 1029.6 |
| 20260502034049 | 42 | 161 | 0.0 | 0.0 | 0.00 | 0.00 | 0.00 | 75 | 1029.6 |
| 20260502033550 | 42 | 161 | 0.0 | 0.0 | 0.00 | 0.00 | 0.00 | 74 | 1029.6 |
| 20260502033051 | 42 | 161 | 0.0 | 0.0 | 0.00 | 0.00 | 0.00 | 74 | 1029.6 |
| 20260502032549 | 42 | 161 | 0.0 | 0.0 | 0.00 | 0.00 | 0.00 | 74 | 1029.6 |
| 20260502032053 | 42 | 160 | 0.0 | 0.0 | 0.00 | 0.00 | 0.00 | 74 | 1029.5 |
| 20260502031556 | 42 | 161 | 0.0 | 0.0 | 0.00 | 0.00 | 0.00 | 74 | 1029.6 |
| 20260502031048 | 42 | 161 | 0.0 | 0.0 | 0.00 | 0.00 | 0.00 | 75 | 1029.6 |
| 20260502030546 | 42 | 309 | 0.0 | 0.0 | 0.00 | 0.00 | 0.00 | 74 | 1029.6 |
| 20260502030052 | 43 | 309 | 0.0 | 0.0 | 0.00 | 0.00 | 0.00 | 74 | 1029.6 |
| 20260502025545 | 43 | 161 | 0.0 | 0.0 | 0.00 | 0.00 | 0.00 | 73 | 1029.7 |
| 20260502025046 | 43 | 309 | 0.0 | 0.0 | 0.00 | 0.00 | 0.00 | 72 | 1029.7 |
| 20260502024558 | 43 | 160 | 0.0 | 0.0 | 0.00 | 0.00 | 0.00 | 72 | 1029.7 |
| 20260502024044 | 43 | 161 | 0.0 | 0.0 | 0.00 | 0.00 | 0.00 | 72 | 1029.7 |
| 20260502023544 | 43 | 161 | 0.0 | 0.0 | 0.00 | 0.00 | 0.00 | 72 | 1029.8 |
| 20260502023102 | 43 | 161 | 0.0 | 0.0 | 0.00 | 0.00 | 0.00 | 72 | 1029.8 |
| 20260502022543 | 43 | 161 | 0.0 | 0.0 | 0.00 | 0.00 | 0.00 | 72 | 1029.8 |
| 20260502022042 | 44 | 161 | 0.0 | 0.0 | 0.00 | 0.00 | 0.00 | 72 | 1029.9 |
| 20260502021543 | 44 | 161 | 0.0 | 2.0 | 0.00 | 0.00 | 0.00 | 72 | 1029.9 |
| 20260502021043 | 44 | 161 | 0.0 | 2.0 | 0.00 | 0.00 | 0.00 | 71 | 1029.9 |
| 20260502020545 | 44 | 161 | 0.0 | 0.0 | 0.00 | 0.00 | 0.00 | 71 | 1029.9 |
| 20260502020042 | 44 | 161 | 0.0 | 0.0 | 0.00 | 0.00 | 0.00 | 72 | 1029.9 |
| 20260502015542 | 43 | 161 | 0.0 | 0.0 | 0.00 | 0.00 | 0.00 | 72 | 1029.9 |
| 20260502015042 | 43 | 161 | 0.0 | 0.0 | 0.00 | 0.00 | 0.00 | 72 | 1029.9 |
| 20260502014540 | 43 | 309 | 0.0 | 0.0 | 0.00 | 0.00 | 0.00 | 72 | 1029.9 |
| 20260502014040 | 43 | 161 | 0.0 | 0.0 | 0.00 | 0.00 | 0.00 | 72 | 1029.9 |
| 20260502013543 | 44 | 309 | 0.0 | 0.0 | 0.00 | 0.00 | 0.00 | 72 | 1029.9 |
| 20260502013040 | 43 | 309 | 0.0 | 0.0 | 0.00 | 0.00 | 0.00 | 72 | 1029.9 |
| 20260502012540 | 44 | 161 | 0.0 | 0.0 | 0.00 | 0.00 | 0.00 | 71 | 1030.0 |
| 20260502012039 | 44 | 161 | 0.0 | 0.0 | 0.00 | 0.00 | 0.00 | 71 | 1029.9 |
| 20260502011538 | 44 | 161 | 0.0 | 0.0 | 0.00 | 0.00 | 0.00 | 71 | 1030.0 |
| 20260502011037 | 44 | 161 | 0.0 | 0.0 | 0.00 | 0.00 | 0.00 | 70 | 1030.0 |
| 20260502010537 | 44 | 161 | 0.0 | 0.0 | 0.00 | 0.00 | 0.00 | 70 | 1030.0 |
| 20260502010037 | 45 | 161 | 0.0 | 0.0 | 0.00 | 0.00 | 0.00 | 69 | 1030.0 |
| 20260502005536 | 45 | 161 | 0.0 | 2.0 | 0.00 | 0.00 | 0.00 | 69 | 1030.0 |
| 20260502005036 | 45 | 161 | 0.0 | 3.0 | 0.00 | 0.00 | 0.00 | 68 | 1030.0 |
| 20260502004535 | 45 | 161 | 1.0 | 4.0 | 0.00 | 0.00 | 0.00 | 68 | 1030.0 |
| 20260502004036 | 45 | 161 | 2.0 | 4.0 | 0.00 | 0.00 | 0.00 | 68 | 1030.0 |
| 20260502003534 | 45 | 162 | 0.0 | 4.0 | 0.00 | 0.00 | 0.00 | 68 | 1030.0 |
| 20260502003034 | 45 | 162 | 0.0 | 4.0 | 0.00 | 0.00 | 0.00 | 68 | 1030.1 |
| 20260502002536 | 45 | 120 | 2.0 | 4.0 | 0.00 | 0.00 | 0.00 | 69 | 1030.1 |
| 20260502002033 | 45 | 151 | 1.0 | 3.0 | 0.00 | 0.00 | 0.00 | 69 | 1030.1 |
| 20260502001534 | 45 | 151 | 2.0 | 3.0 | 0.00 | 0.00 | 0.00 | 69 | 1030.1 |
| 20260502001034 | 45 | 151 | 1.0 | 2.0 | 0.00 | 0.00 | 0.00 | 69 | 1030.2 |
| 20260502000531 | 45 | 309 | 0.0 | 0.0 | 0.00 | 0.00 | 0.00 | 68 | 1030.1 |
| 20260502000053 | 46 | 151 | 0.0 | 0.0 | 0.00 | 0.00 | 0.00 | 67 | 1030.1 |
| 20260501235528 | 46 | 151 | 0.0 | 0.0 | 0.00 | 0.00 | 0.00 | 67 | 1030.1 |
| 20260501235031 | 46 | 151 | 0.0 | 0.0 | 0.00 | 0.00 | 0.00 | 66 | 1030.1 |
| 20260501234526 | 47 | 309 | 0.0 | 0.0 | 0.00 | 0.00 | 0.00 | 65 | 1030.3 |
| 20260501234024 | 48 | 309 | 0.0 | 1.0 | 0.00 | 0.00 | 0.00 | 64 | 1030.3 |
| 20260501233523 | 48 | 309 | 0.0 | 2.0 | 0.00 | 0.00 | 0.00 | 62 | 1030.3 |
| 20260501233022 | 48 | 309 | 0.0 | 2.0 | 0.00 | 0.00 | 0.00 | 62 | 1030.3 |
| 20260501232522 | 48 | 309 | 0.0 | 0.0 | 0.00 | 0.00 | 0.00 | 62 | 1030.3 |
| 20260501232020 | 48 | 309 | 0.0 | 0.0 | 0.00 | 0.00 | 0.00 | 62 | 1030.4 |
| 20260501231520 | 49 | 309 | 0.0 | 2.0 | 0.00 | 0.00 | 0.00 | 61 | 1030.4 |
| 20260501231020 | 49 | 309 | 1.0 | 2.0 | 0.00 | 0.00 | 0.00 | 61 | 1030.4 |
| 20260501230522 | 49 | 309 | 0.0 | 3.0 | 0.00 | 0.00 | 0.00 | 61 | 1030.3 |
| 20260501230020 | 49 | 309 | 0.0 | 3.0 | 0.00 | 0.00 | 0.00 | 61 | 1030.4 |
| 20260501225519 | 49 | 309 | 0.0 | 3.0 | 0.00 | 0.00 | 0.00 | 61 | 1030.4 |
| 20260501225017 | 49 | 309 | 0.0 | 3.0 | 0.00 | 0.00 | 0.00 | 61 | 1030.4 |
| 20260501224520 | 49 | 309 | 1.0 | 2.0 | 0.00 | 0.00 | 0.00 | 60 | 1030.3 |
| 20260501224016 | 49 | 309 | 0.0 | 2.0 | 0.00 | 0.00 | 0.00 | 60 | 1030.4 |
| 20260501223516 | 49 | 309 | 1.0 | 3.0 | 0.00 | 0.00 | 0.00 | 60 | 1030.4 |
| 20260501223015 | 49 | 309 | 1.0 | 3.0 | 0.00 | 0.00 | 0.00 | 60 | 1030.4 |
| 20260501222513 | 49 | 309 | 0.0 | 0.0 | 0.00 | 0.00 | 0.00 | 60 | 1030.5 |
| 20260501222013 | 49 | 309 | 0.0 | 0.0 | 0.00 | 0.00 | 0.00 | 60 | 1030.5 |